Regional Weather Roundup
Issued by NWS

Home | Current Version | Previous Version | Graphics & Text | Print | Product List | Glossary On
Versions: 1 2 3 4 5 6 7 8 9 10 11 12 13 14 15 16 17 18 19 20 21 22 23 24 25 26 27 28 29 30 31 32 33 34 35 36 37 38 39 40 41 42 43 44 45 46 47 48 49 50
609
ASUS43 KIND 181759
RWRIN

WEATHER ROUNDUP FOR INDIANA
NATIONAL WEATHER SERVICE INDIANAPOLIS IN
100 PM EST SAT NOV 18 2017

NOTE: "FAIR" INDICATES FEW OR NO CLOUDS BELOW 12,000 FEET WITH NO
SIGNIFICANT WEATHER AND/OR OBSTRUCTIONS TO VISIBILITY.

* - STATION DOES NOT REPORT WEATHER SUCH AS PRECIPITATION OR FOG.

+ - STATION NOT QUALITY CONTROLLED BY THE NATIONAL WEATHER SERVICE.
    USE DATA WITH CAUTION...ESPECIALLY DEWPOINT AND RELATIVE
    HUMIDITY OBSERVATIONS.

INZ001>003-010>013-019-020-181900-
NORTHWEST INDIANA

CITY           SKY/WX    TMP DP  RH WIND       PRES   REMARKS
GARY /AIRPORT/ LGT RAIN  43  43 100 N26G46    29.40F
KNOX *+        CLOUDY    45  43  93 N17G26    29.32F
MICHIGAN CITY+ LGT RAIN  43  43 100 N16G28    29.38F
MONTICELLO +   CLOUDY    47  46  96 N15G31    29.28F
6HR MIN TEMP:  47; 6HR MAX TEMP:  52; 6HR PCP:  1.23;

RENSSELAER +   LGT RAIN  45  41  87 N17G28    29.32R

$$

LMZ046-743>745-181900-
SOUTHERN LAKE MICHIGAN

STATION/POSITION TIME  TEMP    WIND        PRES    WAVE
                       AIR SEA DIR/SP/G            HT
                 (UTC) (F)     (DEG/KT/KT) (MB)    (FT)
BURNS HARBOR     1740   44     360/ 28/ 34  995.3F
MICHIGAN CITY    1730   44      10/ 29/ 34   N/A

$$

INZ004-005-014>016-021>024-181900-
NORTH CENTRAL INDIANA

CITY           SKY/WX    TMP DP  RH WIND       PRES   REMARKS
ELKHART        RAIN      45  43  93 N9        29.33F
GOSHEN         LGT RAIN  46  43  89 N18       29.28F
6HR MIN TEMP:  45; 6HR MAX TEMP:  47; 6HR PCP:  0.78;

PERU/GRISSOM   LGT RAIN  52  52 100 NW15      29.24R
6HR MIN TEMP:  51; 6HR MAX TEMP:  54; 6HR PCP:  2.29;

SOUTH BEND     RAIN      42  42 100 N21G26    29.34F FOG
6HR MIN TEMP:  42; 6HR MAX TEMP:  45; 6HR PCP:  0.78;

WARSAW +       LGT RAIN  46  46 100 N16G22    29.26F

$$

INZ006>009-017-018-025>027-181900-
NORTHEAST INDIANA

CITY           SKY/WX    TMP DP  RH WIND       PRES   REMARKS
AUBURN +       HVY RAIN  48  46  93 NW8       29.31R
FORT WAYNE     TSTM      54  53  97 NE6       29.27R VSB 1/2
6HR MIN TEMP:  50; 6HR MAX TEMP:  54; 6HR PCP:  2.43;

KENDALLVILLE + HVY RAIN  46  46 100 N5        29.31R

$$

INZ028-029-035-036-043>045-051>053-181900-
WEST CENTRAL INDIANA

CITY           SKY/WX    TMP DP  RH WIND       PRES   REMARKS
CRAWFORDSVL +  TSTM      53  53 100 NW8       29.24F
6HR MIN TEMP:  53; 6HR MAX TEMP:  61; 6HR PCP:  0.33;

GREENCASTLE +  CLOUDY    63  59  88 SW12G21   29.25F
LAFAYETTE      CLOUDY    48  48 100 N21G31    29.27F
6HR MIN TEMP:  48; 6HR MAX TEMP:  56; 6HR PCP:  1.55;

TERRE HAUTE    LGT RAIN  67  59  75 SW25G38   29.24F
6HR MIN TEMP:  62; 6HR MAX TEMP:  67; 6HR PCP:  0.03;


$$

INZ030>032-037>040-046>048-054>057-064-065-181900-
CENTRAL INDIANA

CITY           SKY/WX    TMP DP  RH WIND       PRES   REMARKS
COLUMBUS       CLOUDY    64  57  77 SW25G35   29.32F
FRANKFORT +    TSTM      56  55  96 NW3       29.26F
6HR MIN TEMP:  56; 6HR MAX TEMP:  64; 6HR PCP:  1.42;

INDIANAPOLIS   LGT RAIN  63  59  87 SW25G40   29.26F
6HR MIN TEMP:  59; 6HR MAX TEMP:  65; 6HR PCP:  0.16;

-EAGLE CREEK   LGT RAIN  64  59  83 SW14G36   29.24F
6HR MIN TEMP:  59; 6HR MAX TEMP:  66; 6HR PCP:  0.39;

KOKOMO +       RAIN      53  52  96 W8        29.26R
6HR MIN TEMP:  51; 6HR MAX TEMP:  58; 6HR PCP:  1.26;

MT COMFORT *+  CLOUDY    63  61  94 SW25G38   29.25F
SHELBYVILLE    CLOUDY    66  57  72 SW23G33   29.28F
6HR MIN TEMP:  58; 6HR MAX TEMP:  66; 6HR PCP: TRACE;


$$

INZ033-034-041-042-049-050-058-059-181900-
EAST CENTRAL INDIANA

CITY           SKY/WX    TMP DP  RH WIND       PRES   REMARKS
MUNCIE         LGT RAIN  62  57  83 S24G38    29.18F
6HR MIN TEMP:  51; 6HR MAX TEMP:  63; 6HR PCP:  0.29;

RICHMOND +     CLOUDY    61  55  82 SW25G37   29.31F

$$

INZ060-061-067>069-081>083-085>088-181900-
SOUTHWEST INDIANA

CITY           SKY/WX    TMP DP  RH WIND       PRES   REMARKS
EVANSVILLE     LGT RAIN  67  61  81 SW22G33   29.38F
6HR MIN TEMP:  64; 6HR MAX TEMP:  67; 6HR PCP:  0.03;

HUNTINGBURG +  CLOUDY    65  60  84 S24G35    29.38F
6HR MIN TEMP:  61; 6HR MAX TEMP:  65; 6HR PCP:  0.03;


$$

INZ062-063-066-070>080-084-089>092-181900-
SOUTH CENTRAL AND SOUTHEAST INDIANA

CITY           SKY/WX    TMP DP  RH WIND       PRES   REMARKS
BLOOMINGTON    CLOUDY    65  58  78 SW23G31   29.30F
6HR MIN TEMP:  62; 6HR MAX TEMP:  67; 6HR PCP: TRACE;

MADISON *+     CLOUDY    63  55  77 S23G39    29.38F
SEYMOUR +      CLOUDY    66  57  72 SW26G40   29.33F

$$





USA.gov is the U.S. government's official web portal to all federal, state and local government web resources and services.